Regional Weather Roundup
Issued by NWS

Home | Current Version | Previous Version | Graphics & Text | Print | Product List | Glossary Off
Versions: 1 2 3 4 5 6 7 8 9 10 11 12 13 14 15 16 17 18 19 20 21 22 23 24 25 26 27 28 29 30 31 32 33 34 35 36 37 38 39 40 41 42 43 44 45 46 47 48 49 50

000
ASUS43 KMPX 262001
RWRMN
WEATHER ROUNDUP FOR MINNESOTA
NATIONAL WEATHER SERVICE TWIN CITIES/CHANHASSEN MN
300 PM CDT THU MAR 26 2015


NOTE: "FAIR" INDICATES FEW OR NO CLOUDS BELOW 12,000 FEET WITH NO
SIGNIFICANT WEATHER AND/OR OBSTRUCTIONS TO VISIBILITY. N/A MEANS
CURRENT SKY AND/OR WEATHER CONDITIONS ARE NOT AVAILABLE.

MNZ060>063-068>070-262100-
   Twin Cities Metro

CITY           SKY/WX    TMP DP  RH WIND       PRES   REMARKS
TWIN CITIES    CLOUDY    35  17  47 N14G23    30.10F WCI  26
ST PAUL        CLOUDY    35  16  45 NW20      30.11F WCI  24
CRYSTAL        CLOUDY    35  16  45 NW17      30.10F WCI  25
BLAINE         PTSUNNY   36  16  44 NW15G21   30.10F
LAKEVILLE      CLOUDY    32  19  59 NW15G23   30.09F WCI  22
EDEN PRAIRIE   CLOUDY    33  19  56 NW14G20   30.10F WCI  23
SOUTH ST PAUL  CLOUDY    35  17  47 NW13      30.10S WCI  26
LAKE ELMO      CLOUDY    36  18  48 N13       30.09F
$$
MNZ001>005-007-008-013>017-022>024-027-028-262100-
   Northwest Minnesota

CITY           SKY/WX    TMP DP  RH WIND       PRES   REMARKS
BEMIDJI        SUNNY     28   3  34 NW14G20   30.17F WCI  17
HALLOCK        PTSUNNY   30  16  55 N18       30.29F WCI  18
ROSEAU         SUNNY     28  10  47 N9G16     30.24F WCI  20
WARROAD        SUNNY     25  10  54 E10       30.24F WCI  15
THIEF RVR FALL MOSUNNY   27  12  54 N14       30.25F WCI  15
CROOKSTON      PTSUNNY   28  14  54 N17       30.28S WCI  16
FOSSTON        MOSUNNY   30  16  55 N18       30.22F WCI  18
DETROIT LAKES  MOSUNNY   30  16  55 N17G23    30.19F WCI  18
MOORHEAD       MOSUNNY   34   7  32 N21       30.24F WCI  22
PARK RAPIDS    SUNNY     30   3  31 N16G25    30.14F WCI  19
$$
MNZ006-009>011-018-025>026-262100-
   North Central Minnesota

CITY           SKY/WX    TMP DP  RH WIND       PRES   REMARKS
BAUDETTE       SUNNY     23   6  48 N14G23    30.21F WCI  11
FLAG ISLAND    SUNNY     21   1  42 N8        30.24S WCI  12
INTL FALLS     SUNNY     26   6  42 N14       30.17F WCI  14
WASKISH        SUNNY     28  12  50 NW13      30.20S WCI  18
BIG FORK       SUNNY     28   5  37 N8G17     30.14F WCI  20
LONGVILLE      PTSUNNY   30   9  40 NW8       30.14S WCI  23
GRAND RAPIDS   PTSUNNY   27   7  43 N13G25    30.13S WCI  16
CRANE LAKE     SUNNY     23   3  42 NW8       30.18F WCI  14
ORR            SUNNY     25   1  36 NW5G16    30.12F WCI  19
COOK           SUNNY     25   3  39 NW9G16    30.13F WCI  15
WALKER         FAIR      28   6  37 N15G22    30.15F WCI  17
$$
MNZ012-019>021-037-262100-
   Northeast Minnesota

CITY           SKY/WX    TMP DP  RH WIND       PRES   REMARKS
DULUTH         MOSUNNY   30   6  36 N12G21    30.08S WCI  20
ELY            SUNNY     23   1  39 NW12G21   30.10F WCI  12
HIBBING        MOSUNNY   28   4  35 NW14G25   30.11F WCI  17
EVELETH        SUNNY     27   3  36 NW9G17    30.12S WCI  17
DULUTH HARBOR  SUNNY     32   9  37 N10       30.13F WCI  24
TWO HARBORS    MOSUNNY   32  10  40 NW10G18   30.08S WCI  24
SILVER BAY     SUNNY     30   1  29 NW8G18    30.08S WCI  23
GRAND MARAIS     N/A     30   6  36 VRB7      30.11S WCI  23
G MARAIS ARPRT MOSUNNY   19   1  45 NW14G21   30.03S WCI   6
$$
MNZ029>031-032-039>041-046>048-054>057-064-262100-
   West Central Minnesota

CITY           SKY/WX    TMP DP  RH WIND       PRES   REMARKS
FERGUS FALLS   MOSUNNY   30   7  37 N14G23    30.21F WCI  20
WHEATON        CLOUDY    30  16  55 N17G24    30.23F WCI  18
MORRIS         CLOUDY    28  19  69 N18       30.18S WCI  16
ALEXANDRIA     CLOUDY    28  17  63 N10       30.16S WCI  19
ELBOW LAKE     CLOUDY    29  15  54 N14       30.18F WCI  19
WADENA         PTSUNNY   28  12  50 N14G21    30.15F WCI  17
GLENWOOD       CLOUDY    28  19  69 N14       30.15F WCI  17
APPLETON       PTSUNNY   34  18  51 NW17G26   30.19S WCI  23
BENSON         CLOUDY    30  19  64 N14       30.18S WCI  20
ORTONVILLE     CLOUDY    32  18  55 N16       30.19F WCI  21
MADISON        CLOUDY    34  18  51 N17G23    30.18F WCI  23
WILLMAR        FAIR      30  19  64 N15G22    30.16F WCI  19
$$
MNZ033>034-036-042>043-049>051-058-059-262100-
   Central Minnesota

CITY           SKY/WX    TMP DP  RH WIND       PRES   REMARKS
ST CLOUD       CLOUDY    31  15  52 N15       30.13S WCI  20
SAUK CENTRE    CLOUDY    28  18  64 NW14G20   30.15F WCI  17
PAYNESVILLE    CLOUDY    27  19  70 NW10G16   30.15F WCI  18
AITKIN         MOSUNNY   36   3  25 N10G21    30.11S
PINE RIVER     MOSUNNY   28  10  47 N10G20    30.17S WCI  19
BRAINERD       SUNNY     32   8  36 N17G24    30.14F WCI  21
STAPLES        MOSUNNY   30   9  40 N15G21    30.14F WCI  19
LONG PRAIRIE   CLOUDY    30  16  55 NW16      30.14F WCI  19
LITTLE FALLS   PTSUNNY   32  10  40 NW12G17   30.13F WCI  23
LITCHFIELD     CLOUDY    30  21  69 NW10      30.14F WCI  21
MAPLE LAKE     CLOUDY    34  22  61 NW10G18   30.13F WCI  26
$$
MNZ037-044-045-052-053-262100-
   East Central Minnesota

CITY           SKY/WX    TMP DP  RH WIND       PRES   REMARKS
PRINCETON      CLOUDY    36  16  44 W9G16     30.12S
MORA           PTSUNNY   32  14  47 NW16G22   30.12F WCI  21
CAMBRIDGE      PTSUNNY   36  18  48 N13G21    30.09F
RUSH CITY      PTSUNNY   33  13  43 NW9G20    30.11S WCI  25
MOOSE LAKE     SUNNY     32   5  32 NW14G22   30.09S WCI  22
HINCKLEY       FAIR      34  10  37 NW14G21   30.10S WCI  24
CLOQUET        SUNNY     30   1  29 N12G26    30.09S WCI  21
MCGREGOR       SUNNY     32   9  37 N12G23    30.12F WCI  23
$$
MNZ071>073-080-081-089-090-097-098-262100-
   Southwest Minnesota

CITY           SKY/WX    TMP DP  RH WIND       PRES   REMARKS
MONTEVIDEO     CLOUDY    32  21  64 N18       30.18F WCI  20
GRANITE FALLS  PTSUNNY   33  21  60 NW13G36   30.18F WCI  24
CANBY          CLOUDY    34  19  56 N16       30.18F WCI  23
MARSHALL       CLOUDY    34  18  51 N20       30.16F WCI  22
REDWOOD FALLS  CLOUDY    33  21  61 NW12      30.15F WCI  24
OLIVIA         CLOUDY    32  23  69 N16       30.14F WCI  21
PIPESTONE      CLOUDY    34  21  60 N12       30.12F WCI  25
WINDOM         CLOUDY    34  19  55 NW18G25   30.13F WCI  23
WORTHINGTON    CLOUDY    34  19  55 N15G21    30.14F WCI  24
JACKSON        CLOUDY    36  21  55 NW16G24   30.12F
TRACY          CLOUDY    35  22  60 N17       30.15F WCI  24
SLAYTON        CLOUDY    34  19  53 N17       30.13F WCI  24
$$
MNZ065>067-074>077-082>085-091>093-262100-
   South Central Minnesota

CITY           SKY/WX    TMP DP  RH WIND       PRES   REMARKS
MANKATO        CLOUDY    32  19  59 NW16      30.12F WCI  21
NEW ULM        PTSUNNY   34  21  60 NW16G26   30.14S WCI  23
ST JAMES       CLOUDY    36  23  60 NW18G24   30.14F
FAIRMONT       CLOUDY    36  19  51 N18G24    30.11F
GLENCOE        CLOUDY    33  24  68 NW13G21   30.12F WCI  24
FARIBAULT      CLOUDY    34  19  55 W12G18    30.11F WCI  25
OWATONNA       CLOUDY    32  19  59 NW15      30.11S WCI  22
WASECA         CLOUDY    32  23  69 NW15G21   30.12F WCI  22
ALBERT LEA     MOSUNNY   34  21  60 NW14      30.10F WCI  24
$$
MNZ078>079-086>088-094>096-262100-
   Southeast Minnesota

CITY           SKY/WX    TMP DP  RH WIND       PRES   REMARKS
ROCHESTER      CLOUDY    31  19  61 NW17      30.07F WCI  19
RED WING       CLOUDY    37  16  41 N9        30.08F
STANTON        CLOUDY    34  21  59 NW13      30.08F WCI  25
DODGE CENTER   CLOUDY    32  21  64 NW13G18   30.08F WCI  22
WINONA         CLOUDY    36  21  55 NW14G23   30.07S
AUSTIN         CLOUDY    30  19  64 N16       30.09F WCI  19
PRESTON        CLOUDY    30  20  67 NW16      30.07S WCI  19
$$
ABBREVIATIONS USED IN REMARKS
   TC - TEMPERATURES IN CELSIUS
  WCI - WIND CHILL INDEX
   HX - HEAT INDEX
  VSB - VISIBILITY
$$


USA.gov is the U.S. government's official web portal to all federal, state and local government web resources and services.